Regional Weather Roundup
Issued by NWS

Home | Current Version | Previous Version | Graphics & Text | Print | Product List | Glossary On
Versions: 1 2 3 4 5 6 7 8 9 10 11 12 13 14 15 16 17 18 19 20 21 22 23 24 25 26 27 28 29 30 31 32 33 34 35 36 37 38 39 40 41 42 43 44 45 46 47 48 49 50
000
ASUS43 KIND 160359
RWRIN

WEATHER ROUNDUP FOR INDIANA
NATIONAL WEATHER SERVICE INDIANAPOLIS IN
1100 PM EST MON JAN 15 2018

NOTE: "FAIR" INDICATES FEW OR NO CLOUDS BELOW 12,000 FEET WITH NO
SIGNIFICANT WEATHER AND/OR OBSTRUCTIONS TO VISIBILITY.

* - STATION DOES NOT REPORT WEATHER SUCH AS PRECIPITATION OR FOG.

+ - STATION NOT QUALITY CONTROLLED BY THE NATIONAL WEATHER SERVICE.
    USE DATA WITH CAUTION...ESPECIALLY DEWPOINT AND RELATIVE
    HUMIDITY OBSERVATIONS.

INZ001>003-010>013-019-020-160500-
NORTHWEST INDIANA

CITY           SKY/WX    TMP DP  RH WIND       PRES   REMARKS
GARY /AIRPORT/ CLOUDY    10   3  72 W17       30.35R WCI  -7
KNOX *+        FAIR       7   1  78 SW15      30.35R WCI -11
MONTICELLO +   CLOUDY     6   0  74 W17G26    30.40R WCI -13

$$

LMZ046-743>745-160500-
SOUTHERN LAKE MICHIGAN

STATION/POSITION TIME  TEMP    WIND        PRES    WAVE
                       AIR SEA DIR/SP/G            HT
                 (UTC) (F)     (DEG/KT/KT) (MB)    (FT)
BURNS HARBOR     0340   10     220/ 11/ 18 1027.4R
MICHIGAN CITY    0330          200/ 17/ 19   N/A

$$

INZ004-005-014>016-021>024-160500-
NORTH CENTRAL INDIANA

CITY           SKY/WX    TMP DP  RH WIND       PRES   REMARKS
GOSHEN         CLOUDY    10   4  76 W13       30.32R WCI  -5
SOUTH BEND     CLOUDY     9   4  80 SW12      30.32R WCI  -6

$$

INZ006>009-017-018-025>027-160500-
NORTHEAST INDIANA

CITY           SKY/WX    TMP DP  RH WIND       PRES   REMARKS
FORT WAYNE     FAIR       8   3  80 W13       30.35R WCI  -8
KENDALLVILLE + FLURRIES  11   7  85 W10       30.29R WCI  -3

$$

INZ028-029-035-036-043>045-051>053-160500-
WEST CENTRAL INDIANA

CITY           SKY/WX    TMP DP  RH WIND       PRES   REMARKS
GREENCASTLE +  MOCLDY     7  -2  66 W7        30.44S WCI  -5
LAFAYETTE      CLOUDY     5   0  79 W16       30.43R WCI -14
TERRE HAUTE    MOCLDY     6  -3  66 W7        30.49R WCI  -6

$$

INZ030>032-037>040-046>048-054>057-064-065-160500-
CENTRAL INDIANA

CITY           SKY/WX    TMP DP  RH WIND       PRES   REMARKS
GREENWOOD *+   MOCLDY    11   3  72 W10G20    30.42R WCI  -3
INDIANAPOLIS   CLOUDY     7   1  76 W15       30.43R WCI -10
-EAGLE CREEK   FLURRIES   6   0  76 W9        30.42R WCI  -8
MT COMFORT *+  FAIR       7   3  85 W14       30.41R WCI -10
SHELBYVILLE    FAIR      11   2  67 W12       30.42R WCI  -3

$$

INZ033-034-041-042-049-050-058-059-160500-
EAST CENTRAL INDIANA

CITY           SKY/WX    TMP DP  RH WIND       PRES   REMARKS
MUNCIE         FAIR       8   1  73 W12       30.37R WCI  -7
RICHMOND +     LGT SNOW  14  12  92 W17       30.35R WCI  -3

$$

INZ060-061-067>069-081>083-085>088-160500-
SOUTHWEST INDIANA

CITY           SKY/WX    TMP DP  RH WIND       PRES   REMARKS
EVANSVILLE     CLOUDY    16   8  71 NW8       30.51R WCI   5
HUNTINGBURG +  CLOUDY    15   8  73 NW6       30.49S WCI   6

$$

INZ062-063-066-070>080-084-089>092-160500-
SOUTH CENTRAL AND SOUTHEAST INDIANA

CITY           SKY/WX    TMP DP  RH WIND       PRES   REMARKS
BLOOMINGTON    CLOUDY    11   4  73 NW6G20    30.43S WCI   1
MADISON *+     CLOUDY    18  10  73 NW10      30.43R WCI   6
SEYMOUR +      CLOUDY    16   7  67 W12       30.45  WCI   3

$$




USA.gov is the U.S. government's official web portal to all federal, state and local government web resources and services.